RH
21 22 26 26 32 36 38 41 46 56 58 54 49 47 43 42 43 42 42 45 43 49 44 45 52 62 73 56 33 36 53 54 79 100 99 99 94 94 100 100 100 100 100
25 32 40 44 47 45 47 52 57 58 57 53 55 60 58 55 49 46 51 50 54 60 47 39 41 43 48 64 79 50 36 51 58 71 99 100 96 98 99 100 100 100 100
44 46 42 40 41 40 37 39 46 43 43 49 51 55 61 62 61 62 57 51 66 64 65 70 54 52 44 49 49 63 69 42 46 50 63 96 100 100 93 100 100 100 100
36 36 39 41 40 38 38 38 39 37 39 46 54 56 64 71 75 82 87 83 84 70 74 69 69 68 61 40 40 45 52 72 54 43 52 59 92 100 100 100 100 100 100
43 47 50 47 46 41 43 50 52 48 47 51 49 56 63 68 78 88 97 100 100 95 94 94 78 67 54 54 56 49 45 50 71 67 48 52 61 99 100 100 100 100 100
44 46 46 47 46 47 55 56 61 64 68 69 65 63 68 79 80 60 52 58 68 90 89 91 93 100 100 98 78 51 50 44 45 65 65 54 56 64 92 100 100 100 100
51 55 53 52 57 62 63 56 47 41 45 52 59 61 61 53 56 66 70 68 60 58 65 68 64 78 95 100 91 82 61 50 50 43 56 63 56 52 59 74 100 100 100
48 48 49 49 48 47 42 42 44 50 58 58 59 62 66 74 69 77 70 68 72 79 76 62 61 69 69 78 92 90 84 76 59 56 44 50 67 61 53 68 82 100 100
54 52 47 44 43 41 43 48 54 57 67 82 84 77 80 85 95 100 100 100 100 92 95 99 94 92 89 90 88 82 78 76 71 55 54 42 44 60 59 59 74 90 100
52 46 42 43 47 50 56 62 71 74 85 92 90 93 89 82 83 91 97 96 96 100 94 91 89 77 78 92 98 95 91 86 79 66 47 50 40 40 54 57 59 85 100
64 59 60 64 68 62 61 66 68 58 65 72 72 75 78 72 52 40 39 64 84 86 74 41 32 29 30 31 38 50 47 47 63 69 51 42 46 36 39 51 53 59 100
74 67 68 68 69 64 70 74 71 60 58 56 45 28 24 26 22 17 14 11 14 19 19 16 17 17 19 22 24 27 25 36 46 43 40 38 40 44 32 35 49 48 82
62 85 84 71 61 67 69 67 65 61 57 53 34 24 18 17 15 13 11 11 10 10 13 14 12 12 13 15 17 18 24 20 24 26 26 28 31 40 41 29 34 45 47
84 86 62 64 62 66 65 67 62 50 35 21 17 14 13 13 12 11 10 8 9 8 8 9 9 8 9 10 10 12 14 15 15 22 27 24 24 30 34 37 27 35 44
70 61 62 62 63 59 47 29 24 18 16 13 12 11 11 10 10 9 8 6 5 6 6 6 6 6 6 6 7 7 8 10 10 14 18 19 16 20 27 36 31 26 33
67 60 61 60 45 25 19 14 12 12 11 11 10 9 7 6 5 5 5 5 4 4 5 5 5 6 6 6 6 6 6 6 7 10 13 13 11 12 18 27 32 28 27
59 54 48 24 16 12 11 11 10 10 9 8 6 5 5 4 4 4 4 3 3 3 3 3 3 4 5 6 6 6 6 5 6 6 9 12 14 11 12 18 29 33 30
54 26 17 12 11 10 9 9 8 7 6 5 5 5 4 4 3 3 3 3 3 3 4 3 3 3 3 3 5 6 7 6 5 6 6 9 12 11 11 13 22 29 32
21 15 11 10 9 8 8 6 5 4 4 4 4 3 3 3 4 3 3 4 4 4 4 4 3 3 3 3 3 4 6 7 7 6 5 6 11 11 11 11 12 20 27
22 12 10 8 7 6 5 5 4 4 3 3 3 3 4 4 4 4 4 4 4 4 4 4 4 3 3 3 3 3 4 6 7 7 6 6 7 10 11 11 11 13 20
10 8 7 6 5 5 4 4 3 3 4 4 4 4 4 4 4 4 5 4 4 4 4 4 3 3 3 3 3 4 5 7 8 8 7 6 6 8 9 9 11 11 12
7 6 5 4 4 4 4 4 4 4 4 4 4 4 4 4 4 4 4 4 3 4 5 5 4 4 3 3 4 4 5 8 9 8 8 7 7 7 7 8 8 9 10
5 5 4 4 3 4 4 4 4 4 4 4 4 4 4 4 4 3 4 4 4 4 5 5 5 5 4 4 4 4 4 7 9 9 10 9 8 7 6 6 7 8 8
4 3 4 4 4 4 4 5 4 4 4 4 4 4 4 3 3 3 4 4 4 4 5 5 5 5 5 4 4 4 4 5 7 8 9 10 8 9 8 7 6 6 7
4 4 4 4 4 4 4 4 4 4 4 4 4 4 4 3 3 4 4 4 4 4 4 5 5 6 6 6 5 4 4 5 5 7 9 11 9 9 9 9 8 7 6
4 4 4 4 5 5 5 5 5 5 4 4 4 4 4 3 3 4 4 4 4 4 5 5 6 6 6 6 6 5 5 5 6 8 10 10 8 9 9 8 8 8 7
Wind_Speed
48 44 42 43 46 48 47 47 48 50 50 50 50 50 49 45 46 45 42 43 44 45 44 43 39 39 39 37 33 31 38 40 49 57 62 65 75 82 86 87 86 83 74
45 43 47 49 48 49 52 53 54 55 53 51 51 50 51 53 53 50 49 48 49 50 50 47 45 43 43 43 42 40 35 42 47 48 59 64 68 76 79 83 77 76 75
49 49 49 50 53 55 58 58 58 58 58 57 55 52 53 54 55 56 56 53 55 54 53 53 51 50 49 47 48 48 46 43 45 51 53 61 68 75 78 82 77 70 73
53 54 56 57 58 61 61 60 60 61 61 61 59 58 59 61 62 63 64 64 60 58 54 59 58 56 55 55 53 53 53 54 51 50 53 57 64 74 79 84 77 75 76
57 61 63 63 66 66 63 63 65 66 66 66 65 65 66 66 67 68 69 71 72 70 70 73 69 69 68 66 63 59 58 59 61 60 56 58 60 73 80 83 83 80 77
62 65 67 67 69 66 64 72 74 74 76 76 76 75 75 76 78 77 76 76 76 77 79 78 77 77 77 75 74 73 69 65 67 68 67 63 65 67 76 83 82 85 88
65 67 70 70 71 72 76 78 79 81 83 88 87 87 85 86 86 88 89 89 89 86 84 85 84 84 85 86 85 82 80 79 75 74 75 74 70 71 72 79 79 78 83
70 71 73 75 77 79 82 87 90 90 92 97 98 97 94 95 97 97 97 99 98 98 96 93 90 89 90 91 93 93 91 89 89 84 81 83 81 77 75 77 80 77 84
74 76 78 81 84 87 91 95 98 101 102 105 110 110 106 103 103 104 107 109 109 107 105 105 105 101 98 98 100 102 102 100 100 97 90 89 90 88 82 83 83 81 83
83 85 88 92 94 97 101 106 108 111 113 113 116 119 120 119 115 108 110 112 114 114 111 110 111 109 108 107 109 108 111 110 107 105 102 98 97 97 94 88 90 88 87
91 94 98 103 107 110 113 116 116 119 119 118 120 120 119 119 119 114 101 107 109 110 111 105 105 106 106 105 105 106 116 112 109 108 110 106 103 102 103 99 95 96 95
97 103 107 111 116 121 124 125 125 124 119 118 114 111 108 106 102 102 99 88 89 92 95 94 95 94 92 96 98 100 105 103 104 110 111 110 107 107 106 107 103 101 101
105 110 114 119 128 130 130 131 132 129 126 121 114 112 110 106 101 95 91 87 81 78 82 84 85 87 85 85 88 92 94 98 101 106 108 110 109 110 110 112 111 108 107
112 118 125 130 134 133 133 132 128 123 117 112 111 108 105 101 97 94 89 84 81 77 80 83 84 83 86 85 86 86 87 93 92 93 103 107 108 110 111 114 118 116 113
122 128 133 134 134 128 124 119 115 112 111 110 107 103 100 95 94 92 89 86 78 77 76 79 77 80 82 85 87 88 91 94 91 87 97 104 107 108 112 116 122 123 121
131 134 132 129 122 118 114 111 109 109 108 106 102 99 94 90 86 83 78 76 73 66 65 70 70 73 75 78 83 86 89 93 94 89 96 99 101 102 111 116 121 125 126
135 132 124 119 115 113 111 108 105 103 102 100 95 93 89 82 77 74 70 66 65 63 60 64 65 67 71 74 76 79 83 83 92 93 94 92 100 103 104 111 119 125 129
128 119 118 117 114 110 106 103 100 97 94 90 87 84 81 76 72 68 65 61 59 57 55 60 60 62 65 69 69 71 75 77 79 83 92 91 99 99 100 107 115 123 128
121 120 119 116 110 105 102 99 94 89 83 81 78 74 71 68 66 64 60 58 55 53 53 54 59 57 59 62 64 66 68 69 70 76 79 83 94 98 98 104 110 117 123
125 119 115 110 105 100 95 91 87 82 77 73 70 67 65 63 60 58 57 57 53 50 50 50 55 55 53 55 58 60 60 63 64 68 73 80 89 98 102 103 105 111 120
114 109 106 102 97 91 84 81 78 75 72 69 67 64 62 60 58 54 54 54 49 45 44 45 49 49 50 49 49 52 55 57 59 62 67 74 80 91 100 97 99 104 111
104 100 96 91 86 81 77 75 73 70 67 65 65 64 61 58 54 50 48 48 45 40 39 41 43 43 43 43 44 46 50 53 56 58 63 69 74 83 92 97 97 100 102
93 90 85 82 78 74 71 69 68 66 65 63 60 57 56 52 48 44 42 44 41 37 37 39 40 39 40 40 41 43 44 47 51 56 59 66 71 78 86 91 94 96 96
86 82 78 75 73 69 67 65 65 63 61 58 54 52 50 48 44 42 41 40 40 36 37 38 38 36 39 36 39 40 42 45 50 54 54 60 64 71 77 80 86 91 94
82 78 74 72 70 67 64 63 59 56 54 51 48 46 46 45 41 38 38 38 37 35 36 36 34 32 34 35 38 40 39 45 47 48 47 53 61 66 70 74 80 85 89
77 75 70 67 64 62 59 57 54 52 52 50 48 43 40 39 36 34 33 33 33 33 31 30 29 29 30 33 35 35 38 40 43 44 45 53 58 60 65 70 74 78 83
Wind_Direction
295 294 292 292 292 294 296 298 298 296 296 296 295 295 292 288 289 290 287 286 283 277 274 270 268 267 266 265 256 254 246 236 236 234 234 233 229 227 227 230 235 236 232
296 296 295 296 297 298 298 295 294 294 295 293 292 292 291 291 292 289 286 283 280 277 275 272 269 265 262 261 259 255 248 243 235 234 235 238 235 229 229 229 231 233 233
297 296 295 295 294 294 294 294 294 293 294 294 293 292 293 290 290 292 292 285 283 279 274 274 271 266 262 260 260 256 251 245 243 235 233 234 237 232 228 228 229 231 232
297 297 297 297 295 296 296 296 295 295 296 297 294 291 290 289 288 290 290 289 287 277 271 277 271 268 269 264 258 254 254 250 244 242 237 233 233 232 228 230 226 231 230
297 299 300 298 297 297 297 297 299 297 295 295 292 290 288 286 284 283 283 283 282 281 276 278 273 272 269 266 264 257 253 248 245 243 239 236 233 230 231 232 232 230 232
296 296 297 295 296 294 292 295 296 295 295 293 291 288 286 285 282 280 278 276 274 274 272 270 270 269 268 266 265 262 259 251 246 242 239 234 233 231 231 232 235 234 234
297 296 295 295 297 296 295 294 294 294 293 292 290 289 288 286 285 283 280 280 279 275 271 271 269 265 266 266 265 263 261 256 252 245 241 238 232 231 230 229 230 231 229
297 297 297 298 297 296 296 295 295 295 294 292 291 289 287 286 287 285 283 282 282 282 279 273 267 265 263 262 262 261 260 259 255 249 244 239 236 232 230 229 228 228 227
297 296 297 297 296 296 296 296 294 295 294 294 294 294 290 289 285 283 283 283 283 281 280 278 274 269 266 263 262 262 261 259 257 252 247 241 237 235 229 228 227 226 225
301 300 299 298 298 298 298 300 299 298 297 295 293 293 291 289 284 279 279 277 276 276 275 274 272 267 263 260 261 259 259 256 255 253 248 243 237 234 231 226 226 224 222
301 300 300 300 300 300 299 301 299 299 298 296 293 291 288 287 284 283 277 274 275 277 276 273 269 266 264 259 255 254 254 253 252 251 247 242 238 233 230 228 224 224 222
300 300 299 300 299 301 300 300 299 299 297 295 292 290 289 286 285 285 283 279 274 273 272 270 269 264 262 261 259 253 254 250 248 247 245 242 237 234 230 228 225 223 222
298 297 299 300 302 302 302 302 301 300 298 296 294 293 292 290 288 287 285 282 278 275 274 273 267 265 261 258 256 254 252 250 244 245 243 241 237 233 230 228 225 223 222
299 298 300 302 302 303 302 300 297 294 293 293 293 291 290 290 290 289 287 283 282 278 275 272 268 263 261 257 254 251 248 247 243 241 241 239 236 233 231 227 226 224 222
298 301 302 304 304 302 299 296 295 294 293 293 293 292 292 291 290 289 288 285 281 278 274 269 265 262 258 256 253 249 246 244 242 235 239 238 235 233 230 227 225 224 223
303 305 306 304 300 299 297 297 297 297 296 295 295 295 293 290 289 287 285 283 280 275 271 267 264 260 256 253 251 248 245 242 242 235 235 237 238 233 230 227 225 225 224
306 307 304 301 300 300 301 301 299 297 297 297 297 295 293 293 292 289 287 283 280 276 271 266 262 258 255 252 249 248 246 244 240 239 235 233 234 233 231 229 226 225 224
308 306 304 304 304 304 303 302 300 299 297 297 295 293 293 293 291 289 287 285 280 276 271 266 261 257 254 253 251 248 246 244 241 239 237 231 233 234 231 229 227 226 225
310 308 307 306 305 304 303 302 301 299 299 296 295 294 294 293 292 290 288 284 279 274 268 265 263 257 254 252 251 249 247 245 241 239 238 234 232 235 234 233 230 228 227
311 309 307 306 306 305 304 302 301 301 299 298 297 295 295 293 291 290 287 282 280 277 271 264 261 259 255 252 249 248 247 245 241 237 234 232 230 231 232 232 232 229 228
308 307 306 306 305 305 304 303 302 301 301 300 299 298 296 294 292 288 284 281 279 275 271 266 261 259 256 252 248 245 244 243 240 237 233 232 230 229 232 232 233 233 230
308 307 306 306 306 306 306 304 303 302 301 300 299 297 295 293 290 286 282 279 278 276 272 267 263 259 257 253 247 243 240 238 237 235 232 230 229 230 232 232 232 232 232
309 307 307 308 307 307 306 305 303 302 301 300 297 296 295 293 290 287 282 280 278 275 269 265 262 258 254 249 247 245 240 236 234 234 231 230 228 230 230 230 231 232 232
312 311 311 309 309 308 307 304 302 303 302 300 300 298 295 292 290 287 283 278 275 270 264 262 262 257 254 249 246 242 237 233 232 233 230 232 229 230 232 233 234 233 232
313 313 312 311 310 309 307 306 306 303 301 300 298 296 295 292 291 287 280 276 272 268 263 262 260 257 251 246 243 242 239 236 235 234 230 232 232 230 231 232 232 233 234
313 313 312 312 311 310 309 308 308 306 305 304 303 301 297 294 292 286 281 275 269 265 263 261 258 252 249 246 244 240 239 238 237 235 229 231 233 230 231 231 232 233 234